GFSMW_prec_prec_327.txt.gz
QPF
0.00 0.00 0.00 0.00 0.00 0.00 0.00 0.00 0.00 0.00 0.00 0.00 0.00 0.00 0.01 0.02 0.08 0.41 0.12 0.12 0.01 0.00 0.00 0.00 0.00 0.00 0.00 0.00 0.01 0.00 0.00 0.00 0.00 0.00 0.00 0.00 0.00 0.00 0.00 0.00 0.00 0.00 0.00
0.00 0.00 0.00 0.00 0.00 0.00 0.00 0.00 0.00 0.01 0.00 0.00 0.00 0.00 0.00 0.01 0.02 0.07 0.10 0.07 0.00 0.00 0.00 0.00 0.00 0.00 0.00 0.00 0.01 0.00 0.00 0.00 0.00 0.00 0.00 0.00 0.00 0.00 0.00 0.00 0.00 0.00 0.00
0.00 0.00 0.00 0.00 0.00 0.00 0.00 0.00 0.00 0.03 0.01 0.00 0.00 0.00 0.00 0.00 0.03 0.02 0.03 0.04 0.00 0.00 0.00 0.00 0.00 0.00 0.00 0.01 0.00 0.00 0.00 0.00 0.00 0.00 0.00 0.00 0.00 0.00 0.00 0.00 0.00 0.00 0.00
0.00 0.00 0.00 0.00 0.00 0.00 0.00 0.00 0.00 0.03 0.03 0.00 0.00 0.00 0.00 0.00 0.00 0.00 0.00 0.00 0.00 0.00 0.00 0.00 0.00 0.00 0.00 0.00 0.00 0.00 0.00 0.00 0.00 0.00 0.00 0.00 0.00 0.00 0.00 0.00 0.00 0.00 0.00
0.00 0.00 0.00 0.00 0.00 0.00 0.00 0.00 0.00 0.01 0.07 0.00 0.00 0.00 0.00 0.00 0.00 0.00 0.00 0.00 0.00 0.00 0.00 0.00 0.00 0.00 0.00 0.00 0.00 0.00 0.00 0.00 0.00 0.00 0.00 0.00 0.00 0.00 0.00 0.00 0.00 0.00 0.00
0.00 0.00 0.00 0.00 0.00 0.00 0.00 0.00 0.00 0.00 0.02 0.02 0.00 0.00 0.00 0.00 0.00 0.00 0.00 0.00 0.00 0.00 0.00 0.00 0.00 0.00 0.00 0.00 0.00 0.01 0.00 0.03 0.01 0.01 0.00 0.00 0.00 0.00 0.00 0.00 0.00 0.00 0.00
0.00 0.00 0.00 0.00 0.00 0.00 0.00 0.00 0.01 0.01 0.00 0.01 0.00 0.00 0.00 0.00 0.00 0.00 0.00 0.00 0.00 0.00 0.00 0.00 0.00 0.00 0.00 0.00 0.00 0.00 0.02 0.01 0.04 0.04 0.02 0.01 0.00 0.00 0.00 0.00 0.00 0.00 0.00
0.00 0.00 0.00 0.00 0.00 0.00 0.00 0.00 0.00 0.04 0.01 0.00 0.02 0.00 0.00 0.00 0.00 0.00 0.00 0.00 0.00 0.00 0.00 0.00 0.00 0.00 0.00 0.00 0.00 0.00 0.00 0.01 0.01 0.03 0.03 0.01 0.00 0.00 0.00 0.00 0.00 0.00 0.00
0.00 0.00 0.00 0.00 0.00 0.00 0.00 0.00 0.00 0.02 0.10 0.01 0.04 0.08 0.00 0.00 0.00 0.00 0.00 0.00 0.00 0.00 0.00 0.00 0.00 0.00 0.00 0.00 0.00 0.00 0.00 0.00 0.00 0.00 0.01 0.00 0.02 0.01 0.00 0.00 0.00 0.00 0.00
0.00 0.00 0.00 0.00 0.00 0.00 0.00 0.01 0.00 0.01 0.08 0.04 0.01 0.11 0.10 0.00 0.00 0.00 0.00 0.00 0.00 0.00 0.00 0.00 0.00 0.00 0.00 0.00 0.00 0.00 0.00 0.00 0.00 0.00 0.00 0.00 0.00 0.01 0.00 0.00 0.00 0.00 0.00
0.00 0.00 0.00 0.00 0.00 0.00 0.00 0.05 0.00 0.00 0.01 0.01 0.05 0.13 0.20 0.06 0.00 0.00 0.00 0.00 0.00 0.00 0.00 0.00 0.00 0.00 0.00 0.00 0.00 0.00 0.00 0.00 0.00 0.00 0.00 0.00 0.00 0.00 0.00 0.00 0.00 0.00 0.00
0.03 0.02 0.01 0.00 0.00 0.00 0.00 0.02 0.04 0.01 0.01 0.01 0.01 0.11 0.17 0.16 0.02 0.00 0.00 0.00 0.00 0.00 0.00 0.00 0.00 0.00 0.00 0.00 0.00 0.00 0.00 0.00 0.00 0.00 0.01 0.01 0.01 0.01 0.00 0.00 0.00 0.00 0.00
0.09 0.07 0.02 0.01 0.01 0.00 0.00 0.00 0.05 0.03 0.05 0.04 0.01 0.05 0.07 0.06 0.04 0.01 0.00 0.00 0.00 0.00 0.00 0.00 0.00 0.00 0.00 0.00 0.00 0.00 0.00 0.00 0.00 0.00 0.00 0.00 0.00 0.00 0.00 0.00 0.00 0.01 0.01
0.17 0.10 0.03 0.02 0.02 0.02 0.00 0.00 0.06 0.10 0.11 0.11 0.03 0.01 0.02 0.08 0.12 0.08 0.02 0.00 0.00 0.00 0.00 0.00 0.00 0.00 0.00 0.00 0.00 0.00 0.01 0.01 0.00 0.00 0.00 0.00 0.00 0.00 0.01 0.01 0.01 0.01 0.01
0.17 0.13 0.07 0.04 0.03 0.04 0.01 0.00 0.01 0.03 0.12 0.12 0.06 0.00 0.00 0.03 0.11 0.08 0.05 0.01 0.00 0.00 0.00 0.00 0.00 0.00 0.00 0.00 0.00 0.00 0.00 0.01 0.01 0.00 0.01 0.01 0.01 0.01 0.01 0.01 0.01 0.01 0.01
0.22 0.18 0.12 0.06 0.04 0.05 0.05 0.04 0.03 0.03 0.05 0.10 0.12 0.03 0.03 0.01 0.01 0.07 0.08 0.02 0.01 0.00 0.00 0.00 0.00 0.00 0.00 0.00 0.01 0.02 0.00 0.00 0.00 0.00 0.00 0.00 0.01 0.02 0.02 0.02 0.01 0.01 0.01
0.24 0.23 0.18 0.12 0.07 0.06 0.06 0.07 0.06 0.07 0.11 0.11 0.09 0.12 0.11 0.05 0.00 0.01 0.05 0.03 0.04 0.04 0.02 0.01 0.01 0.01 0.01 0.01 0.01 0.02 0.02 0.01 0.00 0.00 0.00 0.00 0.00 0.01 0.08 0.18 0.19 0.16 0.14
0.24 0.20 0.19 0.14 0.10 0.07 0.06 0.06 0.08 0.07 0.06 0.10 0.15 0.08 0.09 0.05 0.01 0.00 0.00 0.02 0.01 0.03 0.06 0.05 0.03 0.03 0.11 0.14 0.09 0.06 0.04 0.02 0.00 0.00 0.00 0.00 0.00 0.00 0.04 0.08 0.10 0.09 0.07
0.17 0.16 0.17 0.15 0.09 0.09 0.07 0.07 0.05 0.07 0.08 0.05 0.08 0.12 0.10 0.07 0.03 0.03 0.03 0.01 0.01 0.00 0.02 0.06 0.09 0.09 0.07 0.10 0.30 0.36 0.27 0.15 0.07 0.03 0.01 0.01 0.00 0.01 0.02 0.02 0.03 0.05 0.05
0.07 0.08 0.08 0.09 0.09 0.09 0.07 0.06 0.06 0.03 0.05 0.08 0.08 0.11 0.10 0.09 0.10 0.08 0.07 0.04 0.02 0.01 0.00 0.01 0.04 0.07 0.09 0.11 0.14 0.21 0.21 0.17 0.10 0.05 0.03 0.04 0.03 0.06 0.06 0.04 0.04 0.04 0.02
0.03 0.03 0.04 0.03 0.03 0.07 0.08 0.06 0.04 0.06 0.02 0.04 0.08 0.08 0.11 0.11 0.10 0.10 0.08 0.09 0.09 0.06 0.04 0.04 0.14 0.23 0.19 0.13 0.11 0.06 0.05 0.03 0.02 0.01 0.01 0.05 0.15 0.19 0.22 0.17 0.11 0.07 0.04
0.02 0.02 0.03 0.02 0.00 0.01 0.03 0.08 0.07 0.03 0.02 0.02 0.06 0.06 0.10 0.12 0.12 0.11 0.13 0.11 0.12 0.09 0.07 0.05 0.04 0.07 0.15 0.16 0.17 0.14 0.04 0.01 0.00 0.00 0.00 0.03 0.11 0.11 0.11 0.11 0.08 0.05 0.02
0.00 0.01 0.02 0.02 0.00 0.00 0.01 0.01 0.04 0.04 0.03 0.01 0.02 0.05 0.05 0.08 0.08 0.08 0.13 0.16 0.13 0.09 0.07 0.04 0.04 0.06 0.05 0.04 0.03 0.02 0.02 0.01 0.00 0.00 0.03 0.04 0.03 0.03 0.04 0.05 0.04 0.01 0.00
0.00 0.00 0.00 0.01 0.01 0.00 0.00 0.00 0.00 0.01 0.01 0.04 0.01 0.03 0.04 0.04 0.05 0.08 0.13 0.16 0.14 0.12 0.06 0.04 0.04 0.04 0.05 0.05 0.03 0.01 0.00 0.01 0.01 0.01 0.03 0.04 0.03 0.03 0.03 0.03 0.02 0.02 0.01
0.00 0.00 0.00 0.00 0.00 0.00 0.00 0.00 0.00 0.00 0.00 0.01 0.03 0.01 0.03 0.02 0.02 0.04 0.04 0.08 0.11 0.13 0.15 0.13 0.07 0.03 0.02 0.03 0.04 0.02 0.01 0.01 0.01 0.01 0.00 0.03 0.03 0.02 0.03 0.02 0.02 0.03 0.02
0.00 0.00 0.00 0.00 0.00 0.00 0.00 0.00 0.00 0.00 0.00 0.00 0.01 0.01 0.00 0.01 0.02 0.02 0.02 0.02 0.02 0.03 0.06 0.11 0.11 0.08 0.07 0.06 0.05 0.04 0.03 0.02 0.03 0.02 0.00 0.00 0.00 0.00 0.01 0.03 0.03 0.02 0.02

GFSMW_prec_prec_333.txt.gz
QPF
0.00 0.00 0.00 0.00 0.00 0.00 0.00 0.00 0.00 0.00 0.00 0.11 0.08 0.02 0.01 0.01 0.04 0.28 0.53 0.24 0.04 0.00 0.00 0.03 0.06 0.05 0.07 0.04 0.10 0.04 0.00 0.00 0.00 0.00 0.00 0.00 0.00 0.00 0.00 0.00 0.00 0.00 0.00
0.00 0.00 0.00 0.00 0.00 0.00 0.00 0.00 0.00 0.00 0.00 0.03 0.11 0.02 0.01 0.01 0.05 0.17 0.34 0.21 0.15 0.04 0.03 0.02 0.02 0.04 0.14 0.10 0.06 0.03 0.00 0.00 0.00 0.00 0.00 0.00 0.00 0.00 0.00 0.00 0.00 0.00 0.00
0.00 0.00 0.00 0.00 0.00 0.00 0.05 0.01 0.00 0.00 0.00 0.00 0.21 0.29 0.11 0.06 0.06 0.05 0.10 0.17 0.21 0.15 0.09 0.03 0.03 0.08 0.13 0.13 0.04 0.01 0.00 0.00 0.00 0.00 0.00 0.00 0.00 0.00 0.00 0.00 0.00 0.00 0.00
0.00 0.00 0.00 0.00 0.00 0.00 0.09 0.07 0.02 0.00 0.00 0.00 0.10 0.31 0.10 0.03 0.02 0.02 0.01 0.09 0.20 0.12 0.12 0.07 0.06 0.11 0.28 0.14 0.07 0.01 0.00 0.00 0.00 0.00 0.00 0.00 0.00 0.00 0.00 0.00 0.00 0.00 0.00
0.00 0.00 0.00 0.00 0.00 0.00 0.10 0.16 0.08 0.02 0.00 0.00 0.01 0.18 0.24 0.10 0.01 0.01 0.01 0.05 0.06 0.05 0.07 0.05 0.09 0.13 0.24 0.21 0.04 0.00 0.00 0.00 0.00 0.00 0.00 0.00 0.00 0.00 0.00 0.00 0.00 0.00 0.00
0.00 0.00 0.00 0.00 0.00 0.00 0.02 0.16 0.24 0.08 0.01 0.00 0.00 0.03 0.14 0.17 0.02 0.01 0.00 0.01 0.04 0.06 0.03 0.03 0.07 0.12 0.14 0.09 0.00 0.00 0.00 0.00 0.00 0.00 0.00 0.00 0.00 0.00 0.00 0.00 0.00 0.00 0.00
0.00 0.00 0.00 0.00 0.00 0.00 0.00 0.07 0.41 0.31 0.11 0.03 0.00 0.00 0.01 0.04 0.06 0.01 0.00 0.00 0.00 0.01 0.02 0.00 0.00 0.07 0.03 0.03 0.00 0.00 0.00 0.00 0.00 0.00 0.00 0.00 0.00 0.00 0.00 0.00 0.00 0.00 0.00
0.00 0.00 0.00 0.00 0.00 0.00 0.00 0.03 0.17 0.43 0.26 0.13 0.05 0.01 0.01 0.01 0.02 0.01 0.00 0.00 0.00 0.00 0.00 0.00 0.00 0.00 0.01 0.01 0.00 0.00 0.00 0.00 0.00 0.00 0.00 0.00 0.00 0.00 0.00 0.00 0.00 0.00 0.00
0.00 0.00 0.00 0.00 0.00 0.00 0.00 0.01 0.06 0.16 0.32 0.12 0.06 0.05 0.03 0.02 0.01 0.01 0.00 0.00 0.00 0.00 0.00 0.00 0.00 0.00 0.00 0.01 0.00 0.00 0.00 0.00 0.00 0.00 0.00 0.01 0.01 0.00 0.00 0.00 0.00 0.00 0.00
0.00 0.00 0.00 0.00 0.00 0.00 0.00 0.00 0.02 0.09 0.06 0.03 0.02 0.03 0.04 0.03 0.01 0.01 0.00 0.00 0.00 0.00 0.00 0.00 0.00 0.00 0.00 0.01 0.02 0.00 0.00 0.00 0.00 0.00 0.00 0.03 0.02 0.01 0.00 0.00 0.00 0.00 0.00
0.00 0.00 0.00 0.00 0.00 0.00 0.00 0.00 0.00 0.08 0.13 0.10 0.09 0.07 0.04 0.03 0.02 0.01 0.00 0.00 0.00 0.00 0.00 0.00 0.00 0.00 0.00 0.00 0.01 0.00 0.00 0.00 0.00 0.00 0.00 0.02 0.04 0.04 0.00 0.00 0.00 0.00 0.00
0.00 0.00 0.00 0.00 0.00 0.00 0.00 0.00 0.00 0.01 0.20 0.24 0.12 0.12 0.08 0.07 0.03 0.03 0.01 0.00 0.00 0.00 0.00 0.00 0.00 0.00 0.00 0.00 0.00 0.00 0.00 0.00 0.00 0.00 0.00 0.00 0.04 0.05 0.04 0.00 0.00 0.00 0.00
0.00 0.00 0.00 0.00 0.00 0.00 0.00 0.00 0.00 0.01 0.17 0.47 0.27 0.16 0.11 0.09 0.07 0.08 0.06 0.02 0.00 0.00 0.00 0.00 0.00 0.00 0.00 0.00 0.00 0.00 0.00 0.00 0.00 0.00 0.00 0.00 0.01 0.03 0.04 0.01 0.01 0.03 0.01
0.00 0.00 0.00 0.00 0.00 0.00 0.01 0.01 0.01 0.00 0.02 0.29 0.34 0.32 0.18 0.11 0.07 0.09 0.09 0.04 0.01 0.00 0.00 0.00 0.00 0.00 0.00 0.00 0.00 0.00 0.00 0.00 0.00 0.00 0.00 0.00 0.00 0.01 0.00 0.00 0.00 0.00 0.00
0.00 0.00 0.01 0.02 0.03 0.03 0.03 0.02 0.02 0.01 0.00 0.10 0.52 0.60 0.35 0.29 0.18 0.13 0.10 0.06 0.04 0.01 0.00 0.00 0.00 0.00 0.00 0.00 0.00 0.00 0.00 0.00 0.00 0.00 0.00 0.00 0.00 0.01 0.00 0.00 0.00 0.00 0.00
0.00 0.00 0.01 0.03 0.06 0.08 0.06 0.04 0.04 0.04 0.03 0.04 0.17 0.60 0.67 0.45 0.28 0.22 0.14 0.10 0.03 0.02 0.00 0.00 0.00 0.00 0.00 0.00 0.00 0.00 0.00 0.00 0.00 0.00 0.00 0.01 0.02 0.02 0.02 0.02 0.03 0.02 0.01
0.00 0.00 0.01 0.03 0.05 0.12 0.12 0.11 0.10 0.07 0.05 0.05 0.07 0.11 0.29 0.55 0.79 0.58 0.37 0.20 0.06 0.02 0.00 0.00 0.00 0.00 0.00 0.00 0.00 0.00 0.00 0.00 0.00 0.01 0.01 0.02 0.02 0.04 0.03 0.02 0.02 0.02 0.02
0.00 0.00 0.00 0.02 0.04 0.06 0.11 0.11 0.14 0.14 0.07 0.03 0.05 0.07 0.09 0.14 0.29 0.60 0.82 0.53 0.28 0.07 0.02 0.00 0.00 0.00 0.00 0.00 0.00 0.00 0.00 0.00 0.02 0.02 0.02 0.03 0.04 0.05 0.05 0.03 0.03 0.02 0.01
0.00 0.01 0.01 0.00 0.03 0.03 0.05 0.09 0.12 0.17 0.10 0.05 0.04 0.06 0.07 0.11 0.26 0.64 0.70 0.73 0.70 0.47 0.14 0.03 0.01 0.00 0.00 0.00 0.00 0.00 0.00 0.00 0.00 0.01 0.02 0.03 0.03 0.02 0.02 0.02 0.01 0.01 0.01
0.00 0.00 0.01 0.00 0.01 0.02 0.01 0.04 0.08 0.14 0.13 0.08 0.11 0.07 0.12 0.14 0.18 0.31 0.38 0.60 0.57 0.73 0.38 0.05 0.02 0.01 0.00 0.02 0.03 0.01 0.00 0.01 0.00 0.00 0.00 0.01 0.01 0.01 0.00 0.00 0.00 0.00 0.00
0.00 0.00 0.00 0.01 0.00 0.01 0.01 0.01 0.04 0.09 0.13 0.10 0.10 0.13 0.11 0.15 0.22 0.21 0.18 0.13 0.44 0.57 0.60 0.15 0.06 0.04 0.03 0.05 0.07 0.03 0.01 0.01 0.02 0.03 0.03 0.04 0.05 0.04 0.04 0.04 0.04 0.03 0.02
0.00 0.00 0.00 0.00 0.00 0.00 0.01 0.01 0.01 0.02 0.05 0.08 0.08 0.09 0.08 0.09 0.15 0.24 0.28 0.17 0.13 0.28 0.50 0.47 0.25 0.16 0.10 0.10 0.10 0.07 0.02 0.01 0.02 0.03 0.03 0.02 0.03 0.03 0.02 0.02 0.01 0.00 0.00
0.00 0.00 0.00 0.00 0.00 0.00 0.00 0.01 0.00 0.00 0.01 0.03 0.05 0.08 0.07 0.06 0.05 0.10 0.29 0.36 0.23 0.16 0.21 0.28 0.62 0.65 0.43 0.25 0.23 0.16 0.09 0.04 0.02 0.01 0.01 0.01 0.01 0.00 0.00 0.00 0.00 0.01 0.00
0.00 0.00 0.00 0.00 0.00 0.00 0.00 0.00 0.00 0.00 0.00 0.01 0.03 0.04 0.07 0.06 0.05 0.06 0.09 0.20 0.28 0.28 0.23 0.21 0.23 0.36 0.71 0.54 0.32 0.20 0.12 0.07 0.05 0.04 0.03 0.02 0.01 0.00 0.00 0.00 0.00 0.00 0.00
0.00 0.00 0.00 0.00 0.00 0.00 0.00 0.00 0.00 0.00 0.00 0.00 0.00 0.01 0.02 0.07 0.05 0.07 0.09 0.09 0.18 0.20 0.19 0.17 0.17 0.29 0.23 0.29 0.32 0.27 0.19 0.12 0.08 0.05 0.01 0.01 0.00 0.00 0.00 0.00 0.00 0.00 0.00
0.00 0.00 0.00 0.00 0.00 0.00 0.00 0.00 0.00 0.00 0.00 0.00 0.00 0.00 0.00 0.01 0.05 0.04 0.06 0.09 0.07 0.14 0.20 0.20 0.19 0.16 0.20 0.19 0.15 0.20 0.19 0.21 0.18 0.09 0.03 0.01 0.01 0.00 0.00 0.00 0.00 0.00 0.00

GFSMW_prec_prec_336.txt.gz
QPF
0.00 0.00 0.00 0.00 0.00 0.00 0.00 0.02 0.01 0.00 0.00 0.01 0.01 0.01 0.02 0.04 0.02 0.03 0.12 0.33 0.38 0.26 0.10 0.01 0.01 0.05 0.07 0.00 0.01 0.03 0.08 0.07 0.03 0.01 0.00 0.00 0.00 0.00 0.00 0.00 0.00 0.00 0.00
0.00 0.00 0.00 0.00 0.00 0.00 0.01 0.04 0.06 0.01 0.00 0.00 0.01 0.04 0.07 0.06 0.04 0.04 0.05 0.10 0.08 0.11 0.11 0.04 0.02 0.08 0.16 0.07 0.04 0.03 0.02 0.08 0.02 0.00 0.00 0.01 0.00 0.00 0.00 0.00 0.00 0.00 0.00
0.00 0.00 0.00 0.00 0.00 0.00 0.01 0.03 0.07 0.11 0.03 0.01 0.00 0.04 0.09 0.12 0.06 0.02 0.01 0.02 0.02 0.06 0.10 0.07 0.03 0.05 0.22 0.14 0.07 0.04 0.03 0.01 0.00 0.00 0.00 0.00 0.00 0.00 0.00 0.00 0.00 0.00 0.00
0.00 0.00 0.00 0.00 0.00 0.00 0.00 0.02 0.07 0.12 0.15 0.05 0.00 0.01 0.02 0.03 0.01 0.01 0.03 0.02 0.01 0.00 0.07 0.09 0.06 0.04 0.20 0.23 0.14 0.07 0.06 0.02 0.00 0.00 0.00 0.00 0.00 0.00 0.00 0.00 0.00 0.00 0.00
0.00 0.00 0.00 0.00 0.00 0.00 0.00 0.01 0.05 0.15 0.22 0.12 0.03 0.01 0.02 0.06 0.01 0.01 0.02 0.02 0.00 0.00 0.00 0.01 0.05 0.09 0.23 0.37 0.35 0.25 0.09 0.03 0.00 0.00 0.00 0.00 0.00 0.00 0.00 0.00 0.00 0.00 0.00
0.00 0.00 0.00 0.00 0.00 0.00 0.00 0.00 0.02 0.13 0.29 0.26 0.18 0.03 0.01 0.11 0.23 0.07 0.03 0.02 0.01 0.00 0.00 0.00 0.00 0.01 0.16 0.32 0.37 0.31 0.15 0.03 0.00 0.00 0.00 0.00 0.00 0.00 0.00 0.00 0.00 0.00 0.00
0.00 0.00 0.00 0.00 0.00 0.00 0.00 0.00 0.00 0.07 0.22 0.25 0.32 0.22 0.06 0.06 0.10 0.14 0.05 0.01 0.01 0.00 0.00 0.00 0.00 0.00 0.05 0.18 0.14 0.15 0.06 0.02 0.00 0.00 0.00 0.00 0.00 0.00 0.00 0.00 0.00 0.00 0.00
0.01 0.00 0.00 0.00 0.00 0.00 0.00 0.00 0.00 0.04 0.21 0.19 0.30 0.33 0.19 0.17 0.13 0.04 0.01 0.00 0.00 0.00 0.00 0.00 0.00 0.00 0.01 0.04 0.04 0.02 0.00 0.00 0.00 0.00 0.00 0.00 0.00 0.00 0.00 0.00 0.00 0.00 0.00
0.00 0.02 0.01 0.00 0.00 0.00 0.00 0.00 0.00 0.00 0.17 0.22 0.18 0.25 0.27 0.22 0.13 0.07 0.07 0.04 0.01 0.00 0.00 0.00 0.00 0.00 0.00 0.00 0.00 0.00 0.00 0.00 0.00 0.00 0.00 0.00 0.00 0.00 0.00 0.00 0.00 0.00 0.00
0.00 0.00 0.01 0.00 0.00 0.00 0.00 0.00 0.00 0.00 0.02 0.10 0.10 0.15 0.25 0.22 0.18 0.08 0.08 0.05 0.05 0.02 0.00 0.00 0.00 0.00 0.00 0.00 0.00 0.00 0.00 0.00 0.00 0.00 0.00 0.00 0.00 0.01 0.00 0.00 0.00 0.00 0.00
0.00 0.00 0.00 0.00 0.00 0.00 0.00 0.00 0.00 0.00 0.00 0.01 0.03 0.09 0.09 0.18 0.17 0.12 0.06 0.04 0.03 0.02 0.01 0.00 0.01 0.01 0.00 0.00 0.00 0.00 0.00 0.00 0.00 0.00 0.00 0.00 0.00 0.01 0.02 0.01 0.00 0.00 0.00
0.00 0.00 0.00 0.00 0.00 0.00 0.00 0.00 0.00 0.00 0.00 0.00 0.00 0.03 0.06 0.05 0.11 0.13 0.08 0.04 0.03 0.03 0.02 0.01 0.00 0.01 0.00 0.00 0.00 0.00 0.00 0.00 0.00 0.00 0.00 0.00 0.00 0.01 0.01 0.01 0.00 0.00 0.00
0.00 0.00 0.00 0.00 0.00 0.00 0.00 0.00 0.00 0.00 0.00 0.00 0.00 0.02 0.08 0.09 0.12 0.14 0.11 0.07 0.06 0.07 0.03 0.02 0.00 0.00 0.00 0.00 0.00 0.01 0.00 0.00 0.00 0.00 0.00 0.00 0.00 0.00 0.01 0.01 0.00 0.00 0.01
0.00 0.00 0.00 0.00 0.00 0.00 0.00 0.00 0.00 0.00 0.00 0.00 0.00 0.00 0.04 0.15 0.18 0.18 0.19 0.09 0.07 0.04 0.04 0.01 0.00 0.00 0.00 0.00 0.00 0.00 0.00 0.00 0.00 0.00 0.00 0.00 0.00 0.00 0.00 0.00 0.00 0.00 0.00
0.00 0.00 0.00 0.00 0.00 0.00 0.00 0.00 0.00 0.00 0.00 0.00 0.00 0.00 0.00 0.04 0.16 0.19 0.22 0.14 0.09 0.05 0.02 0.03 0.02 0.00 0.00 0.00 0.00 0.00 0.00 0.00 0.00 0.00 0.00 0.00 0.00 0.00 0.00 0.00 0.00 0.00 0.00
0.00 0.00 0.00 0.00 0.00 0.00 0.00 0.00 0.00 0.00 0.00 0.00 0.00 0.00 0.00 0.01 0.13 0.21 0.24 0.22 0.13 0.19 0.13 0.06 0.05 0.03 0.00 0.00 0.00 0.00 0.00 0.00 0.00 0.00 0.00 0.00 0.00 0.00 0.00 0.00 0.00 0.00 0.00
0.00 0.00 0.00 0.00 0.00 0.00 0.00 0.00 0.00 0.01 0.02 0.02 0.02 0.01 0.00 0.00 0.07 0.23 0.28 0.28 0.25 0.20 0.29 0.20 0.08 0.03 0.00 0.00 0.00 0.00 0.00 0.00 0.00 0.00 0.00 0.00 0.00 0.00 0.00 0.00 0.00 0.00 0.00
0.00 0.00 0.00 0.00 0.00 0.00 0.00 0.00 0.01 0.03 0.05 0.06 0.05 0.04 0.02 0.01 0.03 0.13 0.17 0.29 0.56 0.48 0.43 0.38 0.18 0.04 0.01 0.00 0.00 0.00 0.00 0.00 0.00 0.00 0.00 0.00 0.00 0.00 0.00 0.00 0.00 0.00 0.00
0.00 0.00 0.00 0.00 0.00 0.00 0.00 0.00 0.00 0.03 0.07 0.08 0.07 0.07 0.08 0.03 0.04 0.02 0.06 0.09 0.35 0.82 0.82 0.74 0.54 0.34 0.06 0.01 0.00 0.00 0.01 0.00 0.00 0.00 0.00 0.00 0.00 0.00 0.01 0.01 0.01 0.00 0.00
0.00 0.00 0.00 0.00 0.00 0.00 0.00 0.00 0.01 0.01 0.05 0.10 0.13 0.08 0.06 0.06 0.04 0.02 0.02 0.03 0.02 0.15 0.75 0.94 0.70 0.47 0.22 0.05 0.03 0.03 0.03 0.01 0.00 0.00 0.00 0.00 0.01 0.03 0.03 0.03 0.02 0.01 0.00
0.00 0.00 0.00 0.00 0.00 0.00 0.00 0.00 0.01 0.01 0.01 0.04 0.08 0.14 0.12 0.06 0.02 0.01 0.05 0.04 0.01 0.02 0.22 0.61 0.67 0.69 0.63 0.36 0.07 0.05 0.03 0.00 0.00 0.00 0.01 0.01 0.04 0.07 0.07 0.06 0.04 0.02 0.02
0.00 0.00 0.00 0.00 0.00 0.00 0.00 0.00 0.00 0.00 0.01 0.01 0.03 0.07 0.14 0.16 0.07 0.02 0.03 0.03 0.02 0.03 0.09 0.57 0.57 0.47 0.47 0.43 0.26 0.13 0.05 0.01 0.01 0.02 0.03 0.05 0.07 0.08 0.10 0.07 0.04 0.03 0.02
0.00 0.00 0.00 0.00 0.00 0.00 0.00 0.00 0.00 0.00 0.00 0.01 0.02 0.03 0.06 0.08 0.12 0.09 0.06 0.16 0.12 0.04 0.04 0.18 0.45 0.56 0.63 0.60 0.51 0.32 0.12 0.07 0.03 0.02 0.05 0.09 0.11 0.11 0.09 0.05 0.04 0.02 0.01
0.00 0.00 0.00 0.00 0.00 0.00 0.00 0.00 0.00 0.00 0.00 0.00 0.00 0.01 0.02 0.06 0.06 0.09 0.09 0.08 0.16 0.16 0.07 0.08 0.17 0.26 0.43 0.88 1.14 0.94 0.55 0.21 0.09 0.06 0.06 0.09 0.09 0.10 0.08 0.04 0.01 0.00 0.00
0.00 0.00 0.00 0.00 0.00 0.00 0.00 0.00 0.00 0.00 0.00 0.00 0.00 0.00 0.00 0.01 0.04 0.06 0.09 0.07 0.08 0.07 0.08 0.09 0.13 0.20 0.23 0.31 0.72 1.07 1.09 1.05 0.81 0.43 0.14 0.08 0.05 0.05 0.04 0.02 0.01 0.01 0.00
0.00 0.00 0.00 0.00 0.00 0.00 0.00 0.00 0.00 0.00 0.00 0.00 0.00 0.00 0.00 0.00 0.01 0.02 0.06 0.07 0.06 0.06 0.06 0.05 0.06 0.11 0.19 0.19 0.11 0.14 0.38 0.52 0.71 0.86 0.68 0.32 0.12 0.07 0.05 0.03 0.02 0.01 0.00

GFSMW_prec_prec_339.txt.gz
QPF
0.00 0.00 0.00 0.00 0.00 0.00 0.00 0.02 0.07 0.09 0.13 0.05 0.01 0.02 0.03 0.06 0.03 0.02 0.01 0.06 0.26 0.41 0.28 0.09 0.00 0.00 0.00 0.00 0.00 0.00 0.00 0.01 0.00 0.02 0.01 0.00 0.00 0.00 0.00 0.00 0.00 0.00 0.00
0.00 0.00 0.00 0.00 0.00 0.00 0.00 0.00 0.03 0.12 0.16 0.10 0.03 0.04 0.06 0.10 0.12 0.09 0.03 0.05 0.19 0.32 0.26 0.13 0.01 0.00 0.01 0.00 0.00 0.00 0.01 0.03 0.04 0.03 0.01 0.00 0.00 0.00 0.00 0.00 0.00 0.00 0.00
0.00 0.00 0.00 0.00 0.00 0.00 0.00 0.00 0.01 0.05 0.13 0.17 0.16 0.09 0.11 0.13 0.11 0.06 0.02 0.05 0.05 0.10 0.05 0.02 0.01 0.00 0.06 0.07 0.02 0.00 0.00 0.03 0.15 0.03 0.00 0.00 0.00 0.00 0.00 0.00 0.00 0.00 0.00
0.00 0.00 0.00 0.00 0.00 0.00 0.00 0.00 0.01 0.03 0.14 0.27 0.23 0.11 0.11 0.06 0.03 0.01 0.05 0.03 0.05 0.08 0.06 0.02 0.01 0.01 0.04 0.16 0.11 0.03 0.01 0.01 0.07 0.10 0.02 0.00 0.00 0.00 0.00 0.00 0.00 0.00 0.00
0.00 0.00 0.00 0.00 0.00 0.00 0.00 0.00 0.00 0.03 0.07 0.23 0.36 0.22 0.13 0.12 0.06 0.05 0.06 0.05 0.03 0.05 0.04 0.03 0.02 0.02 0.03 0.10 0.16 0.09 0.06 0.04 0.03 0.05 0.02 0.00 0.00 0.00 0.00 0.00 0.00 0.00 0.00
0.00 0.00 0.00 0.00 0.00 0.00 0.00 0.00 0.00 0.03 0.05 0.06 0.17 0.32 0.16 0.11 0.04 0.05 0.06 0.04 0.04 0.02 0.01 0.01 0.01 0.01 0.03 0.11 0.19 0.15 0.12 0.08 0.06 0.02 0.00 0.00 0.00 0.00 0.00 0.00 0.00 0.00 0.00
0.00 0.00 0.00 0.00 0.00 0.00 0.00 0.00 0.00 0.02 0.05 0.06 0.05 0.21 0.35 0.20 0.09 0.08 0.06 0.06 0.04 0.02 0.00 0.00 0.00 0.00 0.00 0.04 0.15 0.25 0.25 0.15 0.09 0.06 0.01 0.00 0.00 0.00 0.00 0.00 0.00 0.00 0.00
0.00 0.00 0.00 0.00 0.00 0.00 0.00 0.00 0.00 0.00 0.02 0.05 0.06 0.16 0.22 0.33 0.24 0.17 0.08 0.06 0.04 0.02 0.01 0.00 0.00 0.00 0.00 0.01 0.03 0.11 0.22 0.24 0.16 0.08 0.02 0.00 0.00 0.00 0.00 0.00 0.00 0.00 0.00
0.00 0.00 0.00 0.00 0.00 0.00 0.00 0.00 0.00 0.00 0.00 0.01 0.05 0.09 0.28 0.44 0.46 0.21 0.09 0.04 0.05 0.03 0.04 0.03 0.00 0.00 0.00 0.01 0.00 0.01 0.06 0.19 0.21 0.09 0.03 0.01 0.00 0.00 0.00 0.00 0.00 0.00 0.00
0.00 0.00 0.00 0.00 0.00 0.00 0.00 0.00 0.00 0.00 0.00 0.00 0.01 0.06 0.17 0.32 0.37 0.24 0.12 0.04 0.04 0.05 0.03 0.02 0.00 0.00 0.00 0.00 0.01 0.01 0.03 0.05 0.08 0.04 0.02 0.01 0.00 0.00 0.00 0.00 0.00 0.00 0.00
0.00 0.00 0.00 0.00 0.00 0.00 0.00 0.00 0.00 0.00 0.00 0.00 0.00 0.00 0.04 0.14 0.34 0.44 0.15 0.13 0.08 0.06 0.07 0.05 0.02 0.01 0.01 0.01 0.01 0.00 0.00 0.01 0.01 0.01 0.01 0.00 0.00 0.00 0.00 0.00 0.00 0.00 0.00
0.00 0.00 0.00 0.00 0.00 0.00 0.00 0.00 0.00 0.00 0.00 0.00 0.00 0.00 0.00 0.02 0.14 0.40 0.31 0.20 0.14 0.09 0.06 0.13 0.09 0.02 0.01 0.01 0.01 0.00 0.00 0.00 0.00 0.00 0.00 0.00 0.00 0.00 0.00 0.01 0.01 0.00 0.00
0.00 0.00 0.00 0.00 0.00 0.00 0.00 0.00 0.00 0.00 0.00 0.00 0.00 0.00 0.00 0.01 0.03 0.07 0.16 0.21 0.23 0.17 0.10 0.05 0.10 0.04 0.03 0.01 0.01 0.01 0.00 0.00 0.00 0.00 0.00 0.00 0.00 0.00 0.00 0.00 0.01 0.02 0.02
0.00 0.00 0.00 0.00 0.00 0.00 0.00 0.00 0.00 0.00 0.00 0.00 0.00 0.00 0.00 0.00 0.01 0.12 0.15 0.12 0.16 0.16 0.18 0.08 0.07 0.06 0.04 0.04 0.03 0.03 0.02 0.01 0.00 0.01 0.00 0.00 0.00 0.00 0.00 0.00 0.00 0.02 0.03
0.00 0.00 0.00 0.00 0.00 0.00 0.00 0.00 0.00 0.00 0.00 0.00 0.00 0.00 0.00 0.00 0.00 0.03 0.14 0.15 0.13 0.16 0.11 0.16 0.14 0.19 0.16 0.04 0.03 0.02 0.02 0.01 0.01 0.01 0.00 0.00 0.00 0.00 0.00 0.00 0.00 0.00 0.01
0.00 0.00 0.00 0.00 0.00 0.00 0.00 0.00 0.00 0.00 0.00 0.00 0.00 0.00 0.00 0.00 0.00 0.00 0.04 0.10 0.11 0.11 0.14 0.13 0.11 0.12 0.21 0.20 0.02 0.01 0.02 0.02 0.00 0.00 0.00 0.02 0.01 0.00 0.00 0.00 0.00 0.00 0.00
0.00 0.00 0.00 0.00 0.00 0.00 0.00 0.00 0.00 0.00 0.00 0.00 0.00 0.00 0.00 0.00 0.00 0.00 0.00 0.02 0.03 0.06 0.11 0.14 0.11 0.08 0.09 0.12 0.08 0.01 0.00 0.00 0.00 0.00 0.00 0.03 0.02 0.01 0.01 0.00 0.00 0.00 0.00
0.00 0.00 0.00 0.00 0.00 0.00 0.00 0.00 0.00 0.00 0.00 0.00 0.00 0.00 0.00 0.00 0.00 0.00 0.00 0.00 0.00 0.03 0.08 0.08 0.16 0.16 0.11 0.13 0.19 0.21 0.07 0.00 0.00 0.00 0.00 0.00 0.00 0.00 0.00 0.00 0.00 0.00 0.00
0.00 0.00 0.00 0.00 0.00 0.00 0.00 0.00 0.00 0.00 0.00 0.00 0.00 0.00 0.00 0.01 0.00 0.00 0.00 0.00 0.00 0.00 0.01 0.05 0.16 0.31 0.35 0.30 0.22 0.26 0.28 0.09 0.00 0.00 0.00 0.00 0.00 0.00 0.00 0.00 0.00 0.00 0.00
0.00 0.00 0.00 0.00 0.00 0.00 0.00 0.00 0.00 0.00 0.00 0.00 0.00 0.00 0.01 0.04 0.04 0.02 0.00 0.00 0.00 0.00 0.01 0.03 0.05 0.14 0.41 0.61 0.51 0.41 0.37 0.30 0.07 0.00 0.00 0.00 0.00 0.00 0.00 0.00 0.00 0.00 0.00
0.00 0.00 0.00 0.00 0.00 0.00 0.00 0.00 0.00 0.00 0.00 0.00 0.00 0.00 0.01 0.02 0.04 0.05 0.03 0.02 0.01 0.02 0.01 0.02 0.04 0.12 0.19 0.27 0.59 0.77 0.72 0.49 0.19 0.02 0.00 0.00 0.00 0.00 0.00 0.00 0.00 0.00 0.00
0.00 0.00 0.00 0.00 0.00 0.00 0.00 0.00 0.00 0.00 0.00 0.00 0.00 0.00 0.01 0.03 0.06 0.05 0.04 0.05 0.03 0.04 0.05 0.02 0.00 0.01 0.05 0.17 0.35 0.47 0.71 0.77 0.77 0.50 0.08 0.00 0.00 0.00 0.01 0.02 0.02 0.02 0.04
0.00 0.00 0.00 0.00 0.00 0.00 0.00 0.00 0.00 0.00 0.00 0.00 0.00 0.00 0.00 0.02 0.06 0.11 0.08 0.04 0.05 0.05 0.03 0.02 0.01 0.01 0.01 0.01 0.03 0.13 0.22 0.29 0.38 0.38 0.21 0.04 0.01 0.03 0.06 0.08 0.06 0.05 0.05
0.00 0.00 0.00 0.00 0.00 0.00 0.00 0.00 0.00 0.00 0.00 0.00 0.00 0.00 0.00 0.00 0.01 0.07 0.14 0.13 0.09 0.06 0.04 0.03 0.02 0.01 0.00 0.01 0.03 0.08 0.20 0.21 0.16 0.15 0.12 0.09 0.05 0.07 0.08 0.08 0.05 0.04 0.04
0.00 0.00 0.00 0.00 0.00 0.00 0.00 0.00 0.00 0.00 0.00 0.00 0.00 0.00 0.00 0.00 0.00 0.03 0.11 0.16 0.17 0.16 0.15 0.08 0.04 0.04 0.05 0.06 0.04 0.09 0.22 0.33 0.32 0.27 0.27 0.19 0.12 0.08 0.11 0.18 0.19 0.16 0.11
0.00 0.00 0.00 0.00 0.00 0.00 0.00 0.00 0.00 0.00 0.00 0.00 0.00 0.00 0.00 0.00 0.00 0.00 0.03 0.10 0.13 0.13 0.13 0.15 0.11 0.08 0.04 0.03 0.04 0.07 0.15 0.26 0.41 0.50 0.64 0.78 0.63 0.30 0.15 0.16 0.21 0.21 0.22

GFSMW_prec_prec_345.txt.gz
QPF
0.00 0.00 0.00 0.00 0.00 0.00 0.00 0.00 0.00 0.00 0.00 0.00 0.03 0.07 0.06 0.06 0.04 0.02 0.06 0.10 0.08 0.11 0.37 0.69 0.55 0.34 0.32 0.22 0.29 0.51 0.25 0.19 0.04 0.01 0.00 0.00 0.00 0.00 0.00 0.00 0.00 0.00 0.00
0.00 0.00 0.00 0.00 0.00 0.00 0.00 0.00 0.00 0.00 0.00 0.00 0.01 0.04 0.04 0.05 0.05 0.04 0.03 0.08 0.13 0.13 0.25 0.53 0.43 0.24 0.19 0.31 0.36 0.64 0.31 0.24 0.06 0.01 0.00 0.00 0.00 0.00 0.00 0.00 0.00 0.00 0.00
0.00 0.00 0.00 0.00 0.00 0.00 0.00 0.00 0.00 0.00 0.00 0.00 0.00 0.01 0.07 0.10 0.07 0.05 0.02 0.04 0.10 0.16 0.19 0.29 0.24 0.08 0.05 0.09 0.24 0.55 0.24 0.10 0.09 0.02 0.00 0.00 0.00 0.00 0.00 0.00 0.00 0.00 0.00
0.00 0.00 0.00 0.00 0.00 0.00 0.00 0.00 0.00 0.00 0.00 0.00 0.00 0.01 0.07 0.10 0.08 0.04 0.02 0.05 0.09 0.20 0.20 0.16 0.09 0.06 0.01 0.02 0.10 0.39 0.34 0.08 0.05 0.03 0.01 0.00 0.00 0.00 0.00 0.00 0.00 0.00 0.00
0.00 0.00 0.00 0.00 0.00 0.00 0.00 0.00 0.00 0.00 0.00 0.00 0.00 0.02 0.05 0.05 0.03 0.06 0.07 0.07 0.11 0.13 0.26 0.20 0.07 0.02 0.01 0.01 0.04 0.19 0.24 0.21 0.08 0.02 0.00 0.00 0.00 0.00 0.00 0.00 0.00 0.00 0.00
0.00 0.00 0.00 0.00 0.00 0.00 0.00 0.00 0.00 0.00 0.00 0.00 0.00 0.02 0.03 0.05 0.07 0.11 0.09 0.07 0.05 0.08 0.16 0.36 0.27 0.07 0.03 0.01 0.01 0.04 0.09 0.13 0.12 0.02 0.00 0.00 0.00 0.00 0.00 0.00 0.00 0.00 0.00
0.00 0.00 0.00 0.00 0.00 0.00 0.00 0.00 0.00 0.00 0.00 0.00 0.00 0.01 0.02 0.03 0.04 0.07 0.11 0.09 0.05 0.07 0.06 0.17 0.21 0.09 0.04 0.02 0.00 0.01 0.01 0.02 0.03 0.01 0.00 0.00 0.00 0.01 0.01 0.01 0.00 0.00 0.00
0.00 0.00 0.00 0.00 0.00 0.00 0.00 0.00 0.00 0.00 0.00 0.00 0.00 0.00 0.01 0.01 0.03 0.05 0.08 0.11 0.07 0.03 0.02 0.09 0.21 0.18 0.14 0.03 0.02 0.01 0.00 0.00 0.00 0.00 0.00 0.00 0.00 0.02 0.02 0.00 0.00 0.00 0.00
0.00 0.00 0.00 0.00 0.00 0.00 0.00 0.00 0.00 0.00 0.00 0.00 0.00 0.00 0.01 0.02 0.02 0.03 0.06 0.11 0.08 0.05 0.05 0.05 0.19 0.24 0.23 0.20 0.07 0.03 0.01 0.00 0.00 0.00 0.00 0.00 0.00 0.02 0.01 0.00 0.00 0.00 0.00
0.00 0.00 0.00 0.00 0.00 0.00 0.00 0.00 0.00 0.00 0.00 0.00 0.00 0.00 0.00 0.00 0.02 0.03 0.03 0.02 0.15 0.24 0.13 0.09 0.10 0.29 0.30 0.27 0.15 0.06 0.02 0.00 0.01 0.02 0.02 0.02 0.02 0.07 0.09 0.04 0.00 0.00 0.00
0.00 0.00 0.00 0.00 0.00 0.00 0.00 0.00 0.00 0.00 0.00 0.00 0.00 0.00 0.00 0.00 0.00 0.01 0.03 0.02 0.03 0.22 0.35 0.16 0.08 0.19 0.37 0.35 0.20 0.12 0.03 0.01 0.00 0.01 0.05 0.06 0.07 0.11 0.13 0.12 0.05 0.01 0.00
0.00 0.00 0.00 0.00 0.00 0.00 0.00 0.00 0.00 0.00 0.00 0.00 0.00 0.00 0.00 0.00 0.00 0.01 0.01 0.01 0.02 0.07 0.22 0.35 0.21 0.09 0.20 0.36 0.26 0.08 0.04 0.02 0.01 0.00 0.02 0.07 0.14 0.20 0.14 0.09 0.08 0.03 0.00
0.00 0.00 0.00 0.00 0.00 0.00 0.00 0.00 0.00 0.00 0.00 0.00 0.00 0.00 0.00 0.00 0.00 0.00 0.00 0.00 0.00 0.01 0.04 0.13 0.50 0.54 0.25 0.23 0.24 0.08 0.03 0.01 0.01 0.01 0.00 0.03 0.12 0.17 0.17 0.14 0.06 0.01 0.01
0.00 0.00 0.00 0.00 0.00 0.00 0.00 0.00 0.00 0.00 0.00 0.00 0.00 0.00 0.00 0.00 0.00 0.00 0.00 0.00 0.00 0.00 0.02 0.14 0.32 0.49 0.48 0.33 0.29 0.13 0.03 0.01 0.01 0.01 0.02 0.02 0.03 0.06 0.10 0.14 0.10 0.04 0.02
0.00 0.00 0.00 0.00 0.00 0.00 0.00 0.00 0.00 0.00 0.00 0.00 0.00 0.00 0.00 0.00 0.00 0.00 0.00 0.00 0.00 0.00 0.01 0.05 0.09 0.16 0.33 0.42 0.23 0.22 0.18 0.03 0.01 0.01 0.03 0.04 0.05 0.05 0.03 0.07 0.09 0.06 0.03
0.00 0.00 0.00 0.00 0.00 0.00 0.00 0.00 0.00 0.00 0.00 0.00 0.00 0.00 0.00 0.00 0.00 0.00 0.00 0.00 0.00 0.01 0.01 0.03 0.05 0.09 0.23 0.25 0.29 0.35 0.32 0.15 0.02 0.01 0.04 0.10 0.12 0.08 0.03 0.01 0.02 0.05 0.03
0.00 0.00 0.00 0.00 0.00 0.00 0.00 0.00 0.00 0.00 0.00 0.00 0.00 0.00 0.00 0.00 0.00 0.00 0.00 0.00 0.00 0.00 0.01 0.02 0.04 0.06 0.29 0.41 0.33 0.35 0.66 0.64 0.29 0.06 0.02 0.04 0.07 0.09 0.09 0.06 0.02 0.00 0.00
0.00 0.00 0.00 0.00 0.00 0.00 0.00 0.00 0.00 0.00 0.00 0.00 0.00 0.00 0.00 0.00 0.00 0.00 0.00 0.00 0.00 0.00 0.00 0.00 0.03 0.05 0.08 0.17 0.23 0.22 0.28 0.54 0.52 0.31 0.25 0.16 0.06 0.09 0.12 0.09 0.01 0.00 0.00
0.00 0.00 0.00 0.00 0.00 0.00 0.00 0.00 0.00 0.00 0.00 0.00 0.00 0.00 0.00 0.00 0.00 0.00 0.00 0.00 0.00 0.00 0.00 0.00 0.00 0.01 0.04 0.06 0.08 0.16 0.17 0.18 0.39 0.38 0.22 0.28 0.25 0.13 0.17 0.16 0.12 0.05 0.01
0.00 0.00 0.00 0.00 0.00 0.00 0.00 0.00 0.00 0.00 0.00 0.00 0.00 0.00 0.00 0.00 0.00 0.00 0.00 0.00 0.00 0.00 0.00 0.00 0.00 0.01 0.00 0.02 0.02 0.04 0.08 0.13 0.10 0.22 0.42 0.35 0.18 0.14 0.17 0.16 0.11 0.19 0.15
0.00 0.00 0.00 0.00 0.00 0.00 0.00 0.00 0.00 0.00 0.00 0.00 0.00 0.00 0.00 0.00 0.00 0.00 0.00 0.00 0.00 0.00 0.00 0.00 0.00 0.00 0.01 0.01 0.01 0.02 0.03 0.11 0.09 0.06 0.06 0.09 0.12 0.07 0.03 0.04 0.13 0.10 0.10
0.00 0.00 0.00 0.00 0.00 0.00 0.00 0.00 0.00 0.00 0.00 0.00 0.00 0.00 0.00 0.00 0.00 0.00 0.00 0.00 0.00 0.00 0.00 0.00 0.00 0.00 0.00 0.02 0.01 0.02 0.02 0.06 0.05 0.08 0.04 0.01 0.02 0.04 0.08 0.05 0.02 0.02 0.05
0.00 0.00 0.00 0.00 0.00 0.00 0.00 0.00 0.00 0.00 0.00 0.00 0.00 0.00 0.00 0.00 0.00 0.00 0.00 0.00 0.00 0.00 0.00 0.00 0.00 0.00 0.00 0.00 0.02 0.02 0.03 0.02 0.02 0.04 0.09 0.09 0.05 0.02 0.02 0.02 0.03 0.05 0.06
0.00 0.00 0.00 0.00 0.00 0.00 0.00 0.00 0.00 0.00 0.00 0.00 0.00 0.00 0.00 0.00 0.00 0.00 0.00 0.00 0.00 0.00 0.00 0.00 0.00 0.00 0.00 0.00 0.00 0.00 0.01 0.01 0.01 0.02 0.03 0.05 0.06 0.06 0.02 0.02 0.02 0.03 0.04
0.00 0.00 0.00 0.00 0.00 0.00 0.00 0.00 0.00 0.00 0.00 0.00 0.00 0.00 0.00 0.00 0.00 0.00 0.00 0.00 0.00 0.00 0.01 0.01 0.01 0.01 0.02 0.01 0.02 0.02 0.00 0.01 0.01 0.01 0.01 0.02 0.02 0.01 0.01 0.01 0.01 0.01 0.02
0.00 0.00 0.00 0.00 0.00 0.00 0.00 0.00 0.00 0.00 0.00 0.00 0.00 0.00 0.00 0.00 0.00 0.00 0.00 0.00 0.00 0.00 0.00 0.00 0.00 0.01 0.02 0.02 0.01 0.01 0.00 0.01 0.02 0.01 0.01 0.01 0.02 0.02 0.01 0.01 0.02 0.02 0.02